Location: Ainières
(50.7015°N, 3.5558°E)
Time: 12:25:45
(UTC+00:00)

Daily predictions for brighter satellites

Satellite Brightness Start Highest point End
(mag) Time Altitude Azimuth Time Altitude Azimuth Time Altitude Azimuth
Okean 3 4.2 18:26:14 10° N 18:30:05 33° ENE 18:33:55 10° SE
Cosmos 1633 Rocket 3.1 18:29:02 10° S 18:33:22 64° E 18:37:45 10° NNE
Cosmos 1674 3.5 18:31:07 10° N 18:34:26 29° ENE 18:37:43 10° SE
Cosmos 2360 Rocket 2.4 18:30:34 10° NNW 18:36:16 77° WSW 18:41:54 10° SSE
Cosmos 1437 Rocket 3.1 18:35:19 10° SSE 18:39:11 45° E 18:43:04 10° NNE
Sich 1 4.4 18:36:19 10° SSW 18:40:26 44° WNW 18:44:38 10° N
Cosmos 2251 Rocket 4.2 18:35:15 10° NNW 18:40:27 60° WSW 18:45:35 10° S
Cosmos 676 Rocket 4.3 18:37:20 10° NNW 18:42:24 49° ENE 18:47:28 10° SE
SL-16 R/B 4.2 18:41:12 10° N 18:44:06 14° NNE 18:46:59 10° NE
USA 308 3.0 18:40:51 10° WNW 18:44:34 57° SSW 18:48:15 10° SE
BREEZE-M DEB (TANK) 3.9 18:41:33 10° WSW 18:44:56 63° SSE 18:55:51 10° ENE
Cosmos 1703 Rocket 4.0 18:41:19 10° N 18:45:34 41° ENE 18:49:47 10° SE
Resurs 1-3 4.1 18:43:10 10° SE 18:47:14 39° ENE 18:51:20 10° N
Okean-O 3.4 18:44:40 10° SE 18:48:35 32° ENE 18:52:31 10° N
Cosmos 1743 3.8 18:46:16 10° SSW 18:49:58 49° WNW 18:53:41 10° N
Cosmos 2173 Rocket 4.1 18:43:41 10° N 18:50:00 58° ENE 18:56:16 10° SSE
BREEZE M DEB (TANK) 2.6 18:48:16 10° SW 18:51:08 38° SSE 18:52:43 15° E
Cosmos 1190 Rocket 4.0 18:46:30 10° NNW 18:51:45 86° ENE 18:56:57 10° SSE
Cosmos 2100 Rocket 4.1 18:49:11 10° N 18:55:33 66° ENE 19:01:51 10° SSE
EXPRESS MD2 3.7 18:55:32 10° W 18:57:28 24° SSW 18:59:08 12° SSE
USA 215 3.6 18:52:16 10° ENE 18:58:46 66° NNW 19:05:14 10° W
Cosmos 1470 Rocket 3.5 18:54:46 10° S 18:59:13 72° E 19:03:42 10° NNE
Cosmos 2242 Rocket 4.3 18:56:23 10° N 19:00:37 36° ENE 19:04:48 10° SE
Meteor 1-11 Rocket 4.2 18:54:47 10° SSW 19:00:41 70° WNW 19:06:32 10° N
Cosmos 1733 4.5 18:58:06 10° SE 19:00:54 20° E 19:03:43 10° NE
Cosmos 1263 4.4 18:57:31 10° S 19:01:13 61° E 19:04:20 10° NNE
Okean O Rocket 1.7 18:57:41 10° SSE 19:02:07 82° WSW 19:06:34 10° NNW
Cosmos 1954 Rocket 4.0 19:01:06 10° NNW 19:06:22 81° ENE 19:11:37 10° SSE
Cosmos 1726 3.5 19:08:38 18° E 19:08:38 18° E 19:10:55 10° NE
Meteor 1-21 4.2 19:04:43 10° N 19:10:20 69° ENE 19:15:57 10° SSE
NOSS 0 Rocket 4.3 19:05:00 10° NNW 19:11:02 49° NE 19:15:43 17° ESE
IGS 5A 3.8 19:07:22 10° S 19:11:29 69° W 19:15:37 10° NNW
Landsat 7 3.7 19:07:04 10° SSE 19:11:46 74° ENE 19:16:30 10° N
USA 229 DEB 4.1 19:08:37 10° WSW 19:14:55 61° NW 19:21:51 10° NE
USA 229 4.1 19:08:43 10° WSW 19:15:01 62° NW 19:21:57 10° NE
Exosat Rocket 3.8 19:10:19 10° S 19:15:20 59° ESE 19:21:40 10° NNE
Cosmos 2084 Rocket 4.5 19:14:22 10° WNW 19:17:52 37° SW 19:21:27 10° SSE
SL-8 R/B 4.5 19:13:38 10° W 19:18:10 43° SSW 19:21:31 17° SE
ISS -3.8 19:15:00 10° WSW 19:18:19 65° SSE 19:20:07 24° E
SL-27 R/B 2.5 19:15:45 10° S 19:18:54 43° ESE 19:22:03 10° NE
USA 306 4.3 19:15:51 10° W 19:19:06 28° SW 19:22:14 11° SSE
Terra 3.9 19:18:08 11° ENE 19:19:09 11° NE 19:20:39 10° NNE
SPOT 5 4.5 19:18:20 15° ENE 19:19:33 16° NE 19:22:23 10° NNE
Cosmos 2322 Rocket 4.3 19:15:27 10° NW 19:20:12 28° WSW 19:24:56 10° SSW
Cosmos 1727 Rocket 4.2 19:16:12 10° SSW 19:22:31 76° W 19:28:50 10° N
Cosmos 2237 Rocket 2.9 19:17:25 10° NNW 19:22:40 37° NE 19:25:46 21° ESE
CSL-04 Rocket 3.7 19:18:32 10° SSE 19:24:06 84° ENE 19:29:41 10° NNW
Cosmos 1975 2.8 19:20:37 10° S 19:24:29 58° E 19:28:24 10° NNE
Ariane Rocket 4.2 19:22:38 19° E 19:24:31 24° ENE 19:28:32 10° N
Cosmos 1626 2.7 19:23:53 10° NNW 19:27:25 56° W 19:30:53 10° S
KORONAS-FOTON 4.1 19:23:39 10° NNW 19:27:25 67° W 19:31:13 10° S
Cosmos 1818 3.7 19:22:35 10° NW 19:28:04 78° SW 19:32:27 16° SSE
Cosmos 2061 Rocket 4.1 19:22:20 10° N 19:28:44 59° ENE 19:34:59 10° SSE
SJ-6B 3.3 19:25:48 10° S 19:29:42 59° WSW 19:33:34 10° NNW
USA 186 2.2 19:26:51 10° S 19:29:53 59° W 19:32:59 10° NNW
Meteor 2-10 4.3 19:26:44 10° SSE 19:31:27 42° E 19:36:12 10° NNE
Cosmos 2322 3.9 19:28:21 10° NNW 19:34:02 74° WSW 19:39:23 11° SSE
Cosmos 1371 Rocket 4.0 19:32:15 10° SSW 19:37:32 85° WNW 19:42:49 10° NNE
Cosmos 1864 Rocket 4.4 19:31:38 10° N 19:37:54 80° E 19:44:03 10° SSE
Cosmos 2333 Rocket 3.6 19:34:05 10° NW 19:39:24 39° WSW 19:44:41 10° S
Cosmos 2233 Rocket 4.1 19:33:50 10° N 19:39:53 55° ENE 19:44:06 20° SSE
CZ-4C R/B 3.9 19:34:33 10° NW 19:40:09 31° NNE 19:45:25 15° ENE
GEOS 3 Rocket 4.4 19:36:54 10° NE 19:42:08 54° NW 19:47:22 10° WSW
MOS 1 4.4 19:39:27 22° SE 19:43:05 57° ENE 19:48:40 10° N
Cosmos 1980 4.0 19:37:53 10° NNW 19:43:27 51° NE 19:46:05 29° ESE
Cosmos 1805 3.3 19:43:25 34° SE 19:44:38 47° E 19:48:20 10° NNE
CZ-4 R/B 3.7 19:41:53 10° SSW 19:45:01 24° W 19:48:11 10° NW
Cosmos 1707 4.2 19:41:30 10° NNW 19:45:01 36° W 19:48:31 10° SSW
SL-14 R/B 3.2 19:42:12 10° N 19:46:02 59° ENE 19:47:11 40° SE
Cosmos 2056 Rocket 3.6 19:41:13 10° SSW 19:46:20 77° WNW 19:51:29 10° NNE
NOSS 3-2 (A) 4.1 19:39:48 10° NW 19:47:09 86° SW 19:53:11 22° SE
Cosmos 2219 Rocket 3.1 19:44:31 10° NW 19:49:57 46° WSW 19:55:20 10° S
MetOp-A 4.3 19:48:17 30° SE 19:50:38 52° ENE 19:55:43 10° N
Cosmos 1933 Rocket 4.0 19:46:31 10° SSW 19:50:48 61° WNW 19:55:07 10° N
COSMOS 2428 2.9 19:45:09 10° NNW 19:50:53 72° WSW 19:55:09 18° SSE
BREEZE-M DEB (TANK) 2.7 19:45:45 10° W 19:52:02 76° S 19:52:45 51° ESE
PKM 4.0 19:49:07 10° WNW 19:53:12 60° NNE 19:54:06 42° ENE
ATLAS 3B R/B 4.4 19:46:59 10° WNW 19:53:13 30° N 19:59:44 10° NE
MetOp-B 4.5 19:51:49 33° ESE 19:53:46 47° ENE 19:58:53 10° N
SPOT 1/Viking Rocket 3.5 19:50:10 17° SSE 19:54:13 90° W 19:59:28 10° NNW
NOSS 3-2 (C) 4.0 19:48:18 10° NW 19:55:31 73° NE 20:00:12 29° ESE
SJ 16-02 3.6 19:54:27 10° NNE 19:55:47 11° NE 19:56:03 11° NE
Resurs 01 Rocket 1.5 19:54:50 28° SSE 19:57:11 86° ENE 20:01:39 10° NNW
Cosmos 1725 Rocket 4.0 19:51:05 10° NNW 19:57:19 81° W 20:03:28 10° S
Timation 1 Rocket 4.3 19:51:30 10° SSW 19:57:31 88° ESE 20:03:35 10° NNE
Geosat 4.4 19:54:18 18° SSE 19:58:00 59° WSW 20:03:00 10° NW
Cosmos 1869 Rocket 3.4 19:55:33 10° S 19:59:52 89° ESE 20:04:14 10° N
Cosmos 1850 Rocket 3.9 19:55:43 10° NNW 20:01:04 82° ENE 20:03:29 34° SSE
Okean 2 3.3 19:57:05 10° NNW 20:01:10 82° W 20:02:56 33° S
CENTAUR R/B 3.4 19:58:33 10° NW 20:06:38 70° SW 20:12:45 23° SSE
Cosmos 2297 Rocket 3.4 20:08:56 25° ENE 20:08:56 25° ENE 20:11:41 10° NE
H-2A R/B 2.9 20:08:14 45° ENE 20:08:25 45° ENE 20:12:39 10° N
USA 238 DEB 3.9 20:01:34 10° NW 20:08:47 71° NE 20:12:16 35° ESE
USA 238 3.9 20:01:40 10° NW 20:08:52 71° NE 20:12:21 35° ESE
Cosmos 1110 Rocket 4.1 20:12:50 48° ESE 20:12:55 48° ESE 20:17:55 10° NNE
Iridium 4 Rocket 3.7 20:10:08 10° NNW 20:14:18 52° W 20:17:31 15° SSW
Cosmos 1900 4.2 20:11:57 10° SW 20:16:55 89° SE 20:21:52 10° NE
Cosmos 2098 Rocket 4.2 20:14:01 10° SSW 20:19:07 63° WNW 20:25:24 10° N
BREEZE-M DEB (TANK) 3.2 20:13:11 10° W 20:20:35 88° SSW 20:21:44 52° ESE
Cosmos 2227 Rocket 4.3 20:26:17 12° NE 20:26:17 12° NE 20:26:47 10° NE
Cosmos 1452 Rocket 3.4 20:18:53 10° SSW 20:24:09 77° ESE 20:29:27 10° NNE
Okean-O 4.1 20:21:13 11° SSW 20:25:00 34° W 20:29:04 10° NNW
SL-16 R/B 2.8 20:24:31 10° NNW 20:29:54 40° NE 20:30:33 39° ENE
Landsat 5 3.9 20:27:57 10° N 20:31:42 54° WNW 20:33:43 25° SW
Cosmos 1331 Rocket 4.0 20:33:34 57° ENE 20:33:34 57° ENE 20:38:00 10° NNE
Cosmos 1464 Rocket 4.2 20:28:17 10° N 20:34:28 51° ENE 20:35:08 49° E
Cosmos 2221 Rocket 3.6 20:32:32 10° N 20:36:40 74° NNE 20:36:40 74° NNE
Cosmos 1741 Rocket 4.5 20:32:43 10° NNW 20:37:50 55° WSW 20:39:26 39° SSW
USA 215 3.8 20:37:36 25° ENE 20:41:21 52° N 20:47:39 10° WNW
Cosmos 1674 Rocket 3.9 20:36:59 10° N 20:40:34 57° NNE 20:40:34 57° NNE
Cosmos 1726 3.4 20:42:28 35° W 20:42:52 36° WNW 20:46:09 10° N
Cosmos 1733 Rocket 3.5 20:46:05 53° N 20:46:05 53° N 20:49:26 10° N
Cosmos 1891 Rocket 4.3 20:40:04 10° N 20:46:11 74° E 20:47:03 64° SE
Cosmos 1447 Rocket 4.4 20:43:25 32° S 20:46:29 89° W 20:52:44 10° N
CARTOSAT-1 4.4 20:49:36 43° WSW 20:50:06 45° W 20:54:16 10° NNW
Spot 2 4.3 20:52:03 85° NNE 20:52:03 85° NNE 20:56:56 10° NNW
Meteor 2-13 Rocket 4.4 20:52:11 43° SSW 20:54:24 87° WNW 21:00:36 10° N
Cosmos 1378 Rocket 4.0 20:50:08 10° NNW 20:53:48 60° NNW 20:53:48 60° NNW
ISS -1.3 20:51:47 10° W 20:53:05 22° W 20:53:05 22° W
Terra 2.4 20:56:53 49° NNE 20:56:53 49° NNE 21:00:34 10° N
SPOT 5 3.0 20:57:30 68° NNW 20:57:30 68° NNW 21:01:41 10° NNW
Cosmos 968 Rocket 3.4 20:52:05 10° NNW 20:57:12 81° W 20:57:12 81° W
ADEOS Rocket 3.0 20:58:19 66° ESE 20:58:59 70° ENE 21:05:51 10° NNW
Ariane Rocket 3.2 21:02:48 60° WSW 21:03:05 62° WSW 21:08:08 10° NNW
SPOT 3 Rocket 3.6 21:05:38 78° W 21:05:38 78° W 21:10:47 10° NNW
ERS-1 Rocket 3.1 21:06:30 69° NNW 21:06:30 69° NNW 21:10:56 10° NNW
ARIANE 5 R/B 4.5 21:08:09 22° NNE 21:08:09 22° NNE 21:10:02 10° N
Cosmos 2237 Rocket 2.8 21:01:28 10° NW 21:06:53 49° WSW 21:07:37 46° SW
Spot 2 Rocket 3.7 21:14:44 68° NW 21:14:44 68° NW 21:19:16 10° NNW
Meteor 1-24 Rocket 3.8 21:09:11 10° NNW 21:14:52 84° N 21:14:52 84° N
Cosmos 1513 Rocket 4.4 21:10:27 10° NNW 21:16:31 75° W 21:16:56 71° SW
ATLAS CENTAUR R/B 3.9 21:03:11 10° SW 21:18:02 89° NNW 21:22:22 29° ENE
Cosmos 2346 Rocket 4.3 21:18:02 87° WSW 21:18:05 87° W 21:24:20 10° N
FALCON 9 R/B 4.4 21:15:02 10° WSW 21:25:42 24° SSW 21:25:42 24° SSW
CZ-4C R/B 3.0 21:23:04 10° NW 21:29:52 65° NE 21:30:34 62° ENE
Meteor 2-5 Rocket 4.0 21:24:23 10° NNW 21:29:52 66° W 21:29:52 66° W
Cosmos 2034 Rocket 4.0 21:27:09 10° N 21:32:46 73° N 21:32:46 73° N
Resurs 01 Rocket 4.4 21:32:22 10° WSW 21:34:17 13° W 21:36:17 10° WNW
SJ 16-02 3.2 21:30:54 10° NNW 21:32:57 26° N 21:32:57 26° N
Cosmos 1943 4.3 21:34:38 10° NNW 21:38:48 37° NNE 21:38:48 37° NNE
ATLAS 3B R/B 4.0 21:39:11 10° NW 21:46:01 37° NNE 21:48:14 31° NE
Cosmos 2297 Rocket 2.9 21:50:34 50° NW 21:50:34 50° NW 21:56:03 10° NNE
Cosmos 2227 Rocket 3.5 22:08:02 35° N 22:08:02 35° N 22:11:21 10° NNE
SL-16 R/B 3.5 22:08:42 10° NW 22:12:26 35° WNW 22:12:26 35° WNW
USA 215 3.6 22:24:55 61° NNW 22:24:55 61° NNW 22:30:29 10° WNW
Terra 4.3 22:35:37 16° WNW 22:35:37 16° WNW 22:37:20 10° NW
Cosmos 2263 Rocket 4.2 23:04:25 21° NNE 23:04:25 21° NNE 23:06:13 10° NNE
CZ-4C R/B 4.1 23:11:38 10° NW 23:15:44 33° WNW 23:15:44 33° WNW
ATLAS CENTAUR R/B 4.2 23:23:52 10° W 23:32:04 43° NW 23:32:04 43° NW
ATLAS 3B R/B 3.6 23:30:11 10° NW 23:35:27 50° NW 23:35:27 50° NW
Cosmos 2082 Rocket 4.4 23:41:52 10° N 23:45:45 18° NNE 23:46:10 18° NE
